Location: Newark
(36.0797°N, 3.9744°E)
Time: 18:23:53
(UTC+00:00)

Explorer 11/Cluster Stage 4 - Visible Passes

Search period start: 10 December 2019 00:00
Search period end: 20 December 2019 00:00
Orbit: 467 x 1259 km, 28.8° (Epoch: 09 December)

Date Brightness Start Highest point End Pass type
(mag) Time Alt. Az. Time Alt. Az. Time Alt. Az.
15 Dec 9.8 06:12:14 10° SSW 06:18:10 22° SSE 06:23:49 10° ESE visible
16 Dec 9.5 06:00:51 10° SSW 06:07:12 25° SSE 06:13:19 10° ESE visible
17 Dec 10.1 04:07:13 10° SSE 04:07:55 10° SE 04:08:37 10° SE visible
17 Dec 9.3 05:49:34 10° SSW 05:56:14 28° SSE 06:02:45 10° ESE visible
18 Dec 9.8 03:54:05 10° SSE 03:56:55 12° SSE 03:59:48 10° SE visible
18 Dec 9.1 05:38:21 10° SW 05:45:15 31° SSE 05:52:05 10° ESE visible
19 Dec 9.6 03:42:10 10° S 03:45:56 14° SSE 03:49:48 10° ESE visible
19 Dec 9.0 05:27:14 10° SW 05:34:16 33° SSE 05:41:22 10° E visible
